Location: Newark
(23.1300°N, 73.6109°E)
Time: 17:18:13
(UTC+00:00)

NOAA 18 - Pass Details

Date: 10 July 2020
Orbit: 839 x 862 km, 99.0° (Epoch: 05 August)

Event Time Altitude Azimuth Distance (km) Brightness Sun altitude
Exits shadow 16:25:38 63° 248° (WSW) 951 5.4 -29.4°
Maximum altitude 16:25:48 64° 258° (WSW) 948 5.4 -29.5°
Drops below altitude 10° 16:31:17 10° 339° (NNW) 2,489 8.4 -30.4°
Sets 16:33:41 0° 343° (NNW) 3,424 9.3 -30.7°
